Content
SEND FEEDBACK

Daily
Averages
Monthly
Summary
Mexico

PUEBLA - JARDINES DE SAN MANUEL, PUEBLA


Home > North America > Mexico > Puebla
Elevation: 2122 meters     Latitude: 19 00N     Longitude: 098 11W

WEATHER
 
SELECT A DAY
Number of Records: 123,283;   Date Range: 1/1/95 - 9/29/14
 
SHARE

PRINT THIS DATA

[ ← Previous Day ]
WEATHER ALMANAC - 1 APRIL, 2013
[ Next Day → ]
[ °F ]   °C
Weather ElementAverageHighLow
Temperature20.1 °C28.3 °C (2:50 pm)9 °C (5:43 am)
Dewpoint4.6 °C9.4 °C (11:50 am)1 °C (3:46 pm)
Humidity35.9 %66 % (5:43 am)14 % (5:50 pm)
Barometer1020.3 hPa1027.8 hPa (8:52 am)1000.7 hPa (5:50 pm)
Wind Speed11.1 km/h33.3 km/h (1:48 pm)
Weather ElementAverage
Visibility10.8 km
Wind DirectionSSW (188.3 °)

Weather ElementTotal
Precipitation---
Cooling Degree Days0.3 (Base 18.3)
Growing Degree Days8.7 (Base 10)
Averaged from 26 records on 1 April, 2013
WEATHER CONDITIONS BREAKOUT
WIND DIRECTION BREAKOUT
WEATHER BY HOUR - 1 APRIL, 2013
[ °F ]   °C
Local TimeTemperatureDewpointHumidityBarometerVisibilityWind DirectionWind SpeedGust SpeedPrecipitationEventsConditions
4:59 AM10 °C3 °C62 %1022.7 hPa12.9 kmCalmScattered Clouds
5:43 AM9 °C3 °C66 %1026.8 hPa12.9 kmNW (320°)11.1 km/hScattered Clouds
5:50 AM15 °C5.6 °C42 %1009.8 hPa4.8 kmCalmScattered Clouds
6:46 AM10 °C3 °C62 %1027.1 hPa12.9 kmNW (320°)11.1 km/hMostly Cloudy
7:47 AM13 °C4 °C54 %1027.4 hPa12.9 kmNNW (340°)13 km/hMostly Cloudy
8:50 AM18.9 °C8.3 °C39 %1012.2 hPa4.8 kmCalmHaze
8:52 AM18 °C5 °C42 %1027.8 hPa12.9 kmNorth (360°)7.4 km/hMostly Cloudy
9:45 AM22 °C6 °C35 %1027.8 hPa12.9 kmESE (110°)9.3 km/hMostly Cloudy
10:48 AM24 °C6 °C31 %1027.1 hPa9.7 kmSSE (160°)7.4 km/hMostly Cloudy
11:49 AM25 °C3 °C24 %1026.4 hPa9.7 kmSSE (150°)11.1 km/hMostly Cloudy
11:50 AM27.2 °C9.4 °C22 %1009.5 hPa9.7 kmSSW (210°)3.5 km/hHaze
12:46 PM25 °C4 °C26 %1025.4 hPa9.7 kmSouth (190°)9.3 km/hOvercast
1:48 PM25 °C5 °C28 %1023.7 hPa9.7 kmSSW (200°)33.3 km/hOvercast
2:40 PM24 °C3 °C25 %1023.7 hPa9.7 kmSouth (190°)27.8 km/hOvercast
2:50 PM28.3 °C7.8 °C18 %1004.1 hPa9.7 kmSouth (180°)3.5 km/hHaze
3:46 PM24 °C1 °C22 %1022.7 hPa9.7 kmSSW (210°)24.1 km/hOvercast
4:41 PM24 °C1 °C22 %1022.7 hPa12.9 kmESE (120°)20.4 km/hOvercast
5:45 PM24 °C2 °C24 %1022.7 hPa12.9 kmSSW (210°)22.2 km/hOvercast
5:50 PM25.6 °C3.3 °C14 %1000.7 hPa14.5 kmWSW (240°)3.5 km/hHaze
6:46 PM21 °C3 °C31 %1024 hPa12.9 kmNE (50°)22.2 km/hOvercast
7:47 PM19 °C5 °C40 %1025.4 hPa12.9 kmENE (60°)7.4 km/hOvercast
8:46 PM19 °C5 °C40 %1026.8 hPa12.9 kmNNW (340°)18.5 km/hMostly Cloudy
8:58 PM20 °C3.9 °C24 %1002.4 hPa4.8 kmENE (60°)3.5 km/h
9:50 PM16 °C6 °C52 %1027.1 hPa12.9 kmNNE (20°)9.3 km/hMostly Cloudy
10:49 PM16 °C7 °C55 %1027.8 hPa12.9 kmWNW (290°)11.1 km/hMostly Cloudy
11:50 PM17.8 °C5.6 °C33 %1006.8 hPa4.8 kmCalmScattered Clouds
Hourly data recorded from MMPB, located 0 kilometers away from Puebla - Jardines de San Manuel, Puebla







STORIES FROM OUR PARTNERS